Cosmos 1633 Rocket - Orbit

View from above orbital plane
View from above orbital plane
View from above satellite
View from above satellite

Ground track
Ground track

The orbit data is extracted from the following two-line orbital elements,

1 15593U 85020B   13144.78748000  .00000360  00000-0  41054-4 0  3525
2 15593 082.5386 210.9054 0010475 255.7128 244.4836 14.83342206524235
Epoch (UTC): 24 May 2013 18:53:58
Eccentricity: 0.0010475
inclination: 82.5386°
perigee height: 611 km
apogee height: 626 km
right ascension of ascending node: 210.9054°
argument of perigee: 255.7128°
revolutions per day: 14.83342206
mean anomaly at epoch: 244.4836°
orbit number at epoch: 52423

The dashed part of the orbit path shows where the satellite is in the earth's shadow,  

Developed and maintained by Chris Peat, Heavens-Above GmbH. Please read the updated FAQ before sending e-mail. Imprint. DLR